Tracking 27086 objects as of 22-Mar-2023
HD Live streaming from Space Station
objects crossing your sky now

YZ-1S DEB

Track YZ-1S DEB now!
10-day predictions


NORAD ID: 49385
Int'l Code: 2021-099C
Perigee: 687.9 km
Apogee: 701.0 km
Inclination: 98.1 °
Period: 98.5 minutes
Semi major axis: 7065 km
RCS: Unknown
Launch date: November 3, 2021
Source: People's Republic of China (PRC)
Launch site: Jiuquan Satellite Launch Center, China (JSC)

Note: This is SATELLITE DEBRIS
Your satellite tracking list
Your tracking list is empty




NASA's NSSDC Master Catalog

Two Line Element Set (TLE):
1 49385U 21099C   23080.90838233  .00004397  00000-0  88915-3 0  9996
2 49385  98.1438 206.4793 0009277 129.2230 230.9796 14.61811479 73502
Source of the keplerian elements: AFSPC